Home   Weather   Karlstad   Past weeks
Flag for Sweden

Past Weather in Karlstad, Sweden — Yesterday and Last 2 Weeks

Now
59 °F

Drizzle. Broken clouds.


Feels Like: 59 °F
Forecast: 74 / 60 °F
Wind: 5 mph from South

Location: Karlstad

Current Time: Jul 23, 2019 at 7:11:30 am

Latest Report: Jul 23, 2019 at 5:50 am


Visibility: 2 mi

Pressure: 29.95 "Hg

Humidity: 100%

Dew Point: 59 °F

Location of KarlstadLocation

Past Weather in Karlstad — Graph

°F

Karlstad Temperature Yesterday

Maximum temperature yesterday: 72 °F (at 1:50 pm)
Minimum temperature yesterday: 55 °F (at 12:50 am)
Average temperature yesterday: 63 °F

High & Low Weather Summary for the Past Weeks

 TemperatureHumidityPressure
High77 °F (Jul 11, 12:50 pm)100% (Jul 12, 7:50 pm)29.98 "Hg (Jul 12, 7:50 pm)
Low45 °F (Jul 17, 3:50 am)29% (Jul 10, 5:50 pm)29.77 "Hg (Jul 8, 5:20 am)
Average62 °F75%29.88 "Hg
* Reported Jul 8 5:20 am — Jul 23 5:50 am, Karlstad. Weather by CustomWeather, © 2019

Note: Actual official high and low records may vary slightly from our data, if they occured in-between our weather recording intervals... More about our weather records

Advertising

Karlstad Weather History for the Previous 24 Hours

Scroll right to see more
 ConditionsComfort  
Time TempWeatherWind HumidityBarometerVisibility
5:50 am
Tue, Jul 23
59 °FDrizzle. Broken clouds.5 mph100%29.95 "Hg2 mi
5:20 am59 °FDrizzle. Partly sunny.3 mph100%29.95 "Hg2 mi
4:50 am59 °FMostly cloudy.5 mph100%29.95 "Hg5 mi
4:20 am59 °FMostly cloudy.5 mph100%29.95 "HgN/A
3:50 am59 °FLow clouds.5 mph100%29.95 "HgN/A
3:20 am59 °FDrizzle. Low clouds.5 mph100%29.95 "Hg4 mi
2:50 am59 °FDrizzle. Mostly cloudy.5 mph100%29.98 "Hg4 mi
2:20 am59 °FPassing clouds.3 mph100%29.98 "Hg3 mi
1:50 am59 °FPartly cloudy.3 mph100%29.98 "Hg3 mi
1:20 am59 °FPassing clouds.3 mph100%29.98 "HgN/A
12:50 am59 °FPassing clouds.3 mph94%29.98 "HgN/A
12:20 am59 °FPassing clouds.5 mph94%29.98 "HgN/A
11:50 pm
Mon, Jul 22
59 °FDrizzle. Overcast.5 mph94%29.98 "HgN/A
11:20 pm59 °FPassing clouds.3 mph94%29.98 "HgN/A
10:50 pm59 °FPassing clouds.5 mph94%29.98 "HgN/A
10:20 pm59 °FPassing clouds.6 mph88%29.98 "HgN/A
9:50 pm61 °FScattered clouds.9 mph83%29.98 "HgN/A
9:20 pm63 °FPartly sunny.10 mph73%29.98 "HgN/A
8:50 pm63 °FPartly sunny.10 mph73%29.98 "HgN/A
8:20 pm64 °FPartly sunny.8 mph68%29.98 "HgN/A
7:50 pm64 °FPassing clouds.8 mph68%29.98 "HgN/A
7:20 pm64 °FScattered clouds.9 mph68%29.98 "HgN/A
6:50 pm66 °FPartly sunny.10 mph64%29.98 "HgN/A
6:20 pm66 °FPartly sunny.12 mph64%29.98 "HgN/A
5:50 pm68 °FBroken clouds.15 mph60%29.98 "HgN/A
5:20 pm68 °FPassing clouds.14 mph60%29.98 "HgN/A
4:50 pm70 °FScattered clouds.14 mph57%29.98 "HgN/A
4:20 pm70 °FSunny.15 mph53%29.95 "Hg10 mi
3:50 pm70 °FSunny.15 mph57%29.95 "Hg10 mi
3:20 pm70 °FSunny.13 mph50%29.95 "Hg10 mi
2:50 pm72 °FSunny.14 mph50%29.95 "Hg10 mi
1:50 pm72 °FSunny.13 mph50%29.95 "Hg10 mi
1:20 pm70 °FScattered clouds.9 mph57%29.95 "HgN/A
12:50 pm68 °FPartly sunny.8 mph64%29.95 "HgN/A
12:20 pm66 °FPartly sunny.7 mph68%29.95 "HgN/A
11:50 am66 °FScattered clouds.3 mph73%29.95 "HgN/A
11:20 am66 °FScattered clouds.6 mph78%29.95 "HgN/A
10:50 am66 °FPartly sunny.6 mph78%29.95 "HgN/A
10:20 am64 °FPartly sunny.7 mph78%29.95 "HgN/A
9:50 am64 °FPartly sunny.7 mph83%29.95 "HgN/A
9:20 am64 °FPartly sunny.6 mph83%29.92 "HgN/A
8:50 am64 °FPartly sunny.6 mph83%29.92 "HgN/A
8:20 am63 °FPartly sunny.6 mph88%29.92 "HgN/A
7:50 am61 °FPartly sunny.7 mph100%29.92 "HgN/A
7:20 am61 °FMore clouds than sun.7 mph100%29.92 "HgN/A
Weather by CustomWeather, © 2019

See weather overview